Regional Weather Roundup
Issued by NWS

Home | Current Version | Previous Version | Text Only | Print | Product List | Glossary Off
Versions: 1 2 3 4 5 6 7 8 9 10 11 12 13 14 15 16 17 18 19 20 21 22 23 24 25 26 27 28 29 30 31 32 33 34 35 36 37 38 39 40 41 42 43 44 45 46 47 48 49 50

613
ASUS44 KMEG 261710
RWRTN
TENNESSEE HOURLY STATE WEATHER ROUNDUP
NATIONAL WEATHER SERVICE MEMPHIS TN
1200 PM CDT SAT MAY 26 2018

TNZ002-004-019-021-049-052-054-088>092-261800-
WEST TENNESSEE

CITY           SKY/WX    TMP DP  RH WIND       PRES   REMARKS
MEMPHIS INTL   PTSUNNY   82  70  66 CALM      29.90S
NWS MEMPHIS      N/A     82 N/A N/A MISG        N/A
JACKSON        FAIR      82  72  71 VRB5      29.91S
DYERSBURG      PTSUNNY   81  72  74 VRB5      29.90S
SOMERVILLE     MOSUNNY   81  72  74 S5        29.90S
COVINGTON      SUNNY     82  72  69 VRB3      29.89F
UNION CITY     SUNNY     81  72  74 S6        29.88F
BOLIVAR        SUNNY     81  70  69 VRB3      29.91S
PARIS          SUNNY     79  72  78 S7        29.89F
HUNTINGDON     MOSUNNY   82  72  69 VRB5      29.90S
LEXINGTON      CLOUDY    79  72  78 S6        29.92S
SELMER         PTSUNNY   79  70  73 CALM      29.91F
SAVANNAH       CLOUDY    79  72  78 VRB5G14   29.92S
$$

TNZ008-025-027-028-033-062-065-066-261800-
NORTH MIDDLE TENNESSEE

CITY           SKY/WX    TMP DP  RH WIND       PRES   REMARKS
NASHVILLE      PTSUNNY   81  69  67 VRB3      29.93S
DICKSON        PTSUNNY   73  70  88 N14       29.92F
PORTLAND       PTSUNNY   81  68  65 S5        29.92F
CLARKSVILLE    FAIR      78  69  73 S5        29.89F
SMYRNA         PTSUNNY   80  70  71 SE6       29.93F
MURFREESBORO   MOSUNNY   79  68  69 SW8       29.92F
COOKEVILLE     PTSUNNY   81  68  65 VRB3      29.95S
LIVINGSTON     MOSUNNY   79  68  69 W8        29.94F
CROSSVILLE     FAIR      74  63  68 W6        29.99F
ROCKWOOD       PTSUNNY   77  68  73 S10       29.98F
$$

TNZ061-075-076-078-094-096-097-261800-
SOUTH MIDDLE TENNESSEE

CITY           SKY/WX    TMP DP  RH WIND       PRES   REMARKS
LEWISBURG      MOSUNNY   77  70  78 SW5       29.94S
FAYETTEVILLE   PTSUNNY   79  70  73 VRB7      29.94F
TULLAHOMA      PTSUNNY   79  70  73 VRB7      29.95F
WINCHESTER     PTSUNNY   79  66  65 S7        29.94F
MCMINNVILLE    MOSUNNY   79  66  65 VRB5G12   29.94F
COLUMBIA       PTSUNNY   79  73  83 S5        29.92F
SHELBYVILLE    PTSUNNY   77  70  78 VRB7      29.95S
$$

TNZ017-018-042-046-047-261800-
NORTHEAST TENNESSEE

CITY           SKY/WX    TMP DP  RH WIND       PRES   REMARKS
TRI CITIES     LGT RAIN  71  69  93 VRB3      30.00F
ELIZABETHTON   PTSUNNY   72  68  88 VRB3      30.01F
GREENEVILLE    PTSUNNY   70  66  88 VRB6      30.00F
$$

TNZ012-013-036-069-073-074-261800-
CENTRAL EAST TENNESSEE

CITY           SKY/WX    TMP DP  RH WIND       PRES   REMARKS
KNOXVILLE      PTSUNNY   80  68  66 S9        29.94F
OAK RIDGE      PTSUNNY   80  71  74 VRB5      29.96F
DOWNTOWN KNOXV MOSUNNY   81  68  65 MISG      29.95F
GATLINBURG     MOSUNNY   77  70  78 SE3       29.95F
MORRISTOWN     PTSUNNY   72  70  94 SE5       29.97F
JACKSBORO      PTSUNNY   79  68  69 VRB3      29.99F
$$

TNZ083-085-099-261800-
SOUTHEAST TENNESSEE

CITY           SKY/WX    TMP DP  RH WIND       PRES   REMARKS
CHATTANOOGA    FAIR      80  68  66 S8        29.95F
DAYTON         PTSUNNY   79  72  78 S8        29.94F
$$

SKY/WX REPORTED AS FAIR MEANS FEW OR NO CLOUDS BELOW
12 THOUSAND FEET.





USA.gov is the U.S. government's official web portal to all federal, state and local government web resources and services.